Orange City, IA

5:59 PM CST on January 16, 2018 (GMT -0600)
Orange City Municipal

Weather History for KORC - October, 2012

Change the Weather History Date:

Wednesday, October 17, 2012

  Actual Average Record
Temperature  
Mean Temperature 52 °F -  
Max Temperature 62 °F 62 °F 80 °F (1950)
Min Temperature 42 °F 40 °F 22 °F (1948)
Degree Days  
Heating Degree Days 13    
Growing Degree Days 2 (Base 50)    
Moisture  
Dew Point 38 °F    
Average Humidity 59    
Maximum Humidity 88    
Minimum Humidity 44    
Precipitation  
Precipitation 0.01 in - - ()
Sea Level Pressure  
Sea Level Pressure 29.39 in    
Wind  
Wind Speed 18 mph (West)    
Max Wind Speed 37 mph    
Max Gust Speed 46 mph    
Visibility 10 miles    
Events Rain    
Averages and records for this station are not official NWS values.
T = Trace of Precipitation, MM = Missing Value Source: NWS Daily Summary

Daily Weather History Graph

Daily Weather History Graph

Search for Another Location

Airport or City:

Trip Planner

Search our weather history database for the weather conditions in past years. The results will help you decide how hot, cold, wet, or windy it might be!

Date:

Astronomy

Oct. 17, 2012 Rise Set
Actual Time 7:40 AM CDT 6:37 PM CDT
Civil Twilight 7:12 AM CDT 7:06 PM CDT
Nautical Twilight 6:39 AM CDT 7:39 PM CDT
Astronomical Twilight 6:06 AM CDT 8:11 PM CDT
Moon 10:20 AM CDT (10/17) 8:09 PM CDT (10/17)
Length of Visible Light 11h 54m
Length of Day
10h 56m
Waxing Crescent, 7% of the Moon is Illuminated
Oct 17
Waxing Crescent
Oct 21
First Quarter
Oct 29
Full
Nov 6
Last Quarter
Nov 13
New

Hourly Weather History & Observations

Time (CDT) Temp. Windchill Dew Point Humidity Pressure Visibility Wind Dir Wind Speed Gust Speed Precip Events Conditions
12:15 AM 57.2 °F - 42.8 °F 59% 29.35 in 10.0 mi SE 3.5 mph - N/A   Scattered Clouds
12:35 AM 59.0 °F - 42.8 °F 55% 29.34 in 10.0 mi SSE 6.9 mph - N/A   Overcast
12:55 AM 59.0 °F - 42.8 °F 55% 29.33 in 10.0 mi South 9.2 mph - N/A   Overcast
1:15 AM 59.0 °F - 42.8 °F 55% 29.33 in 10.0 mi South 8.1 mph - N/A   Overcast
1:35 AM 60.8 °F - 42.8 °F 52% 29.29 in 10.0 mi SSE 9.2 mph - N/A   Overcast
1:55 AM 60.8 °F - 42.8 °F 52% 29.30 in 10.0 mi South 9.2 mph - N/A   Mostly Cloudy
2:15 AM 62.6 °F - 42.8 °F 48% 29.29 in 10.0 mi South 10.4 mph - N/A   Overcast
2:35 AM 62.6 °F - 42.8 °F 48% 29.26 in 10.0 mi SSE 9.2 mph - N/A   Mostly Cloudy
2:55 AM 62.6 °F - 42.8 °F 48% 29.25 in 10.0 mi South 9.2 mph - N/A   Scattered Clouds
3:15 AM 62.6 °F - 42.8 °F 48% 29.24 in 10.0 mi South 11.5 mph 16.1 mph N/A   Scattered Clouds
3:35 AM 62.6 °F - 42.8 °F 48% 29.23 in 10.0 mi SSW 16.1 mph - N/A   Scattered Clouds
3:55 AM 62.6 °F - 42.8 °F 48% 29.24 in 10.0 mi SSW 16.1 mph - N/A   Mostly Cloudy
4:15 AM 62.6 °F - 42.8 °F 48% 29.23 in 10.0 mi SW 16.1 mph - N/A   Scattered Clouds
4:35 AM 62.6 °F - 42.8 °F 48% 29.25 in 10.0 mi WSW 24.2 mph 31.1 mph N/A   Scattered Clouds
4:55 AM 62.6 °F - 46.4 °F 55% 29.25 in 10.0 mi West 23.0 mph 35.7 mph N/A   Mostly Cloudy
5:15 AM 60.8 °F - 48.2 °F 63% 29.26 in 10.0 mi West 23.0 mph 26.5 mph N/A   Scattered Clouds
5:35 AM 59.0 °F - 48.2 °F 67% 29.27 in 10.0 mi West 25.3 mph 34.5 mph N/A   Scattered Clouds
5:55 AM 59.0 °F - 50.0 °F 72% 29.28 in 10.0 mi West 25.3 mph 34.5 mph N/A   Mostly Cloudy
6:15 AM 57.2 °F - 48.2 °F 72% 29.30 in 10.0 mi West 31.1 mph 34.5 mph N/A   Overcast
6:55 AM 55.4 °F - 48.2 °F 77% 29.31 in 10.0 mi WNW 28.8 mph 39.1 mph N/A Rain Light Rain
7:15 AM 55.4 °F - 50.0 °F 82% 29.29 in 10.0 mi NW 29.9 mph 33.4 mph N/A Rain Rain
7:35 AM 53.6 °F - 48.2 °F 82% 29.32 in 10.0 mi WNW 24.2 mph 34.5 mph 0.01 in Rain Light Rain
7:55 AM 51.8 °F - 48.2 °F 88% 29.33 in 10.0 mi WNW 23.0 mph 32.2 mph 0.01 in   Mostly Cloudy
8:15 AM 51.8 °F - 44.6 °F 76% 29.34 in 10.0 mi WNW 25.3 mph - N/A   Overcast
8:35 AM 51.8 °F - 44.6 °F 76% 29.35 in 10.0 mi WNW 21.9 mph 36.8 mph N/A   Mostly Cloudy
8:55 AM 51.8 °F - 44.6 °F 76% 29.36 in 10.0 mi WNW 27.6 mph 32.2 mph N/A   Clear
9:15 AM 53.6 °F - 42.8 °F 67% 29.37 in 10.0 mi WNW 24.2 mph 33.4 mph N/A   Clear
9:35 AM 53.6 °F - 39.2 °F 58% 29.37 in 10.0 mi WNW 29.9 mph 38.0 mph N/A   Clear
9:55 AM 53.6 °F - 37.4 °F 54% 29.38 in 10.0 mi WNW 32.2 mph 39.1 mph N/A   Clear
10:15 AM 53.6 °F - 35.6 °F 51% 29.39 in 10.0 mi WNW 28.8 mph 36.8 mph N/A   Clear
10:35 AM 53.6 °F - 35.6 °F 51% 29.41 in 10.0 mi WNW 24.2 mph 38.0 mph N/A   Clear
10:55 AM 53.6 °F - 35.6 °F 51% 29.41 in 10.0 mi WNW 25.3 mph 40.3 mph N/A   Clear
11:15 AM 55.4 °F - 33.8 °F 44% 29.41 in 10.0 mi WNW 25.3 mph 34.5 mph N/A   Clear
11:35 AM 55.4 °F - 35.6 °F 47% 29.41 in 10.0 mi WNW 32.2 mph 39.1 mph N/A   Scattered Clouds
11:55 AM 55.4 °F - 35.6 °F 47% 29.41 in 10.0 mi West 29.9 mph 38.0 mph N/A   Mostly Cloudy
12:15 PM 53.6 °F - 35.6 °F 51% 29.42 in 10.0 mi WNW 32.2 mph 36.8 mph N/A   Overcast
12:35 PM 53.6 °F - 37.4 °F 54% 29.42 in 10.0 mi WNW 29.9 mph 36.8 mph N/A   Mostly Cloudy
12:55 PM 53.6 °F - 37.4 °F 54% 29.41 in 10.0 mi WNW 28.8 mph 34.5 mph N/A   Overcast
1:15 PM 51.8 °F - 39.2 °F 62% 29.41 in 10.0 mi WNW 29.9 mph 34.5 mph N/A Rain Light Rain
1:35 PM 51.8 °F - 39.2 °F 62% 29.42 in 10.0 mi West 25.3 mph 35.7 mph N/A   Overcast
1:55 PM 51.8 °F - 39.2 °F 62% 29.42 in 10.0 mi West 29.9 mph 39.1 mph N/A   Overcast
2:15 PM 51.8 °F - 39.2 °F 62% 29.42 in 10.0 mi West 32.2 mph 39.1 mph N/A   Overcast
2:35 PM 50.0 °F - 37.4 °F 62% 29.42 in 10.0 mi West 32.2 mph 39.1 mph N/A   Overcast
2:55 PM 48.2 °F - 37.4 °F 66% 29.42 in 10.0 mi WNW 36.8 mph 43.7 mph N/A   Overcast
3:15 PM 48.2 °F - 37.4 °F 66% 29.42 in 10.0 mi WNW 33.4 mph 40.3 mph N/A   Overcast
3:35 PM 50.0 °F - 37.4 °F 62% 29.42 in 10.0 mi WNW 35.7 mph 41.4 mph N/A   Overcast
3:55 PM 50.0 °F - 37.4 °F 62% 29.42 in 10.0 mi WNW 35.7 mph 42.6 mph N/A   Overcast
4:15 PM 48.2 °F - 37.4 °F 66% 29.42 in 10.0 mi WNW 28.8 mph 44.9 mph N/A   Overcast
4:35 PM 48.2 °F - 37.4 °F 66% 29.43 in 10.0 mi WNW 31.1 mph 39.1 mph N/A Rain Light Rain
4:55 PM 46.4 °F 37.9 °F 37.4 °F 71% 29.44 in 10.0 mi WNW 25.3 mph 38.0 mph N/A   Light Drizzle
5:15 PM 48.2 °F - 35.6 °F 62% 29.45 in 10.0 mi WNW 32.2 mph 46.0 mph N/A   Overcast
5:35 PM 48.2 °F - 33.8 °F 58% 29.45 in 10.0 mi WNW 28.8 mph 41.4 mph N/A   Overcast
5:55 PM 48.2 °F - 33.8 °F 58% 29.45 in 10.0 mi WNW 20.7 mph 28.8 mph N/A   Overcast
6:15 PM 48.2 °F - 33.8 °F 58% 29.46 in 10.0 mi WNW 20.7 mph - N/A   Overcast
6:35 PM 48.2 °F - 32.0 °F 54% 29.45 in 10.0 mi WNW 27.6 mph 34.5 mph N/A   Scattered Clouds
6:55 PM 48.2 °F - 32.0 °F 54% 29.46 in 10.0 mi NW 23.0 mph 40.3 mph N/A   Scattered Clouds
7:15 PM 48.2 °F - 32.0 °F 54% 29.47 in 10.0 mi NW 26.5 mph 38.0 mph N/A   Mostly Cloudy
7:35 PM 48.2 °F - 32.0 °F 54% 29.49 in 10.0 mi NW 21.9 mph 42.6 mph N/A   Overcast
7:55 PM 46.4 °F 38.3 °F 32.0 °F 57% 29.49 in 10.0 mi NW 23.0 mph 32.2 mph N/A   Overcast
8:15 PM 46.4 °F 38.7 °F 30.2 °F 53% 29.49 in 10.0 mi NW 20.7 mph 31.1 mph N/A   Overcast
8:35 PM 46.4 °F 39.8 °F 30.2 °F 53% 29.49 in 10.0 mi NW 16.1 mph 26.5 mph N/A   Overcast
8:55 PM 46.4 °F 39.8 °F 30.2 °F 53% 29.48 in 10.0 mi NW 16.1 mph 27.6 mph N/A   Overcast
9:15 PM 44.6 °F 36.6 °F 30.2 °F 57% 29.49 in 10.0 mi NW 19.6 mph 25.3 mph N/A   Mostly Cloudy
9:35 PM 44.6 °F 37.8 °F 30.2 °F 57% 29.49 in 10.0 mi WNW 15.0 mph 23.0 mph N/A   Mostly Cloudy
9:55 PM 44.6 °F 38.8 °F 30.2 °F 57% 29.48 in 10.0 mi WNW 11.5 mph - N/A   Overcast
10:15 PM 42.8 °F 38.0 °F 30.2 °F 61% 29.48 in 10.0 mi West 8.1 mph - N/A   Scattered Clouds
10:35 PM 42.8 °F 38.0 °F 30.2 °F 61% 29.47 in 10.0 mi West 8.1 mph - N/A   Mostly Cloudy
10:55 PM 42.8 °F 39.3 °F 30.2 °F 61% 29.47 in 10.0 mi WNW 5.8 mph - N/A   Overcast
11:15 PM 42.8 °F 39.3 °F 30.2 °F 61% 29.47 in 10.0 mi NW 5.8 mph - N/A   Overcast
11:35 PM 44.6 °F 38.8 °F 28.4 °F 53% 29.46 in 10.0 mi NW 11.5 mph 17.3 mph N/A   Overcast
11:55 PM 46.4 °F 39.2 °F 30.2 °F 53% 29.46 in 10.0 mi WNW 18.4 mph 23.0 mph N/A   Overcast